WZZ86BJ ENZV-EPGD

Flight info

Callsign WZZ86BJ
Flight time 1h 18m
Altitude 37000
Route PEVEB DCT TOPLA DCT PENOR N133 DOMAG T240 OGDAV
Aircraft A320/M-VGDW/C

Departure

Time 2026-04-27 07:46
Airport Stavanger Airport, Sola (ENZV)

Arrival

Time 2026-04-27 09:05
Airport Gdańsk Lech Wałęsa Airport (EPGD)
Time Latitude Longitude Altitude Speed Heading
2026-04-27 07:33 58.88151 5.63084 25 ft 0 kts 315°
2026-04-27 07:37 58.88140 5.63105 27 ft 4 kts 315°
2026-04-27 07:37 58.88121 5.63142 28 ft 4 kts 315°
2026-04-27 07:38 58.88102 5.63179 27 ft 4 kts 315°
2026-04-27 07:38 58.88095 5.63192 27 ft 0 kts 315°
2026-04-27 07:41 58.88101 5.63188 27 ft 1 kts 346°
2026-04-27 07:42 58.88105 5.63214 27 ft 5 kts 72°
2026-04-27 07:42 58.88134 5.63276 29 ft 8 kts 25°
2026-04-27 07:42 58.88205 5.63302 30 ft 12 kts 359°
2026-04-27 07:42 58.88267 5.63327 31 ft 8 kts 58°
2026-04-27 07:43 58.88301 5.63422 30 ft 9 kts 22°
2026-04-27 07:43 58.88376 5.63429 31 ft 12 kts 360°
2026-04-27 07:43 58.88470 5.63427 31 ft 15 kts 359°
2026-04-27 07:43 58.88579 5.63422 31 ft 17 kts 358°
2026-04-27 07:44 58.88702 5.63418 31 ft 18 kts 360°
2026-04-27 07:44 58.88839 5.63415 30 ft 21 kts 358°
2026-04-27 07:44 58.88994 5.63410 27 ft 24 kts 359°
2026-04-27 07:44 58.89164 5.63405 28 ft 20 kts 359°
2026-04-27 07:45 58.89273 5.63401 22 ft 15 kts 359°
2026-04-27 07:45 58.89343 5.63483 19 ft 13 kts 81°
2026-04-27 07:45 58.89344 5.63637 18 ft 11 kts 89°
2026-04-27 07:45 58.89314 5.63740 18 ft 9 kts 168°
2026-04-27 07:46 58.89233 5.63739 20 ft 26 kts 179°
2026-04-27 07:46 58.88749 5.63752 27 ft 110 kts 179°
2026-04-27 07:46 58.87761 5.63774 137 ft 163 kts 179°
2026-04-27 07:46 58.86610 5.63792 908 ft 168 kts 180°
2026-04-27 07:47 58.85419 5.63813 1855 ft 174 kts 178°
2026-04-27 07:47 58.84178 5.63877 2645 ft 185 kts 176°
2026-04-27 07:47 58.82818 5.64009 3190 ft 207 kts 176°
2026-04-27 07:47 58.81378 5.64765 3786 ft 228 kts 149°
2026-04-27 07:48 58.80217 5.67046 4350 ft 251 kts 123°
2026-04-27 07:48 58.79367 5.70064 5205 ft 261 kts 118°
2026-04-27 07:48 58.78541 5.73241 6129 ft 267 kts 117°
2026-04-27 07:48 58.77707 5.76490 7014 ft 274 kts 116°
2026-04-27 07:49 58.76851 5.79803 7929 ft 278 kts 116°
2026-04-27 07:49 58.75987 5.83114 8841 ft 282 kts 116°
2026-04-27 07:49 58.75095 5.86515 9745 ft 287 kts 116°
2026-04-27 07:49 58.74182 5.89975 10621 ft 293 kts 116°
2026-04-27 07:50 58.73225 5.93594 11020 ft 316 kts 116°
2026-04-27 07:50 58.72190 5.97500 11319 ft 338 kts 117°
2026-04-27 07:50 58.71104 6.01592 11973 ft 347 kts 117°
2026-04-27 07:50 58.69997 6.05751 12787 ft 352 kts 117°
2026-04-27 07:51 58.68873 6.09969 13568 ft 358 kts 117°
2026-04-27 07:51 58.67731 6.14250 14337 ft 363 kts 117°
2026-04-27 07:51 58.66572 6.18590 15037 ft 367 kts 117°
2026-04-27 07:51 58.65399 6.22970 15783 ft 371 kts 117°
2026-04-27 07:52 58.64213 6.27393 16465 ft 375 kts 117°
2026-04-27 07:52 58.63011 6.31863 17181 ft 379 kts 117°
2026-04-27 07:52 58.61795 6.36377 17868 ft 383 kts 117°
2026-04-27 07:52 58.60564 6.40937 18560 ft 387 kts 117°
2026-04-27 07:53 58.59321 6.45535 19176 ft 390 kts 117°
2026-04-27 07:53 58.58064 6.50174 19766 ft 394 kts 117°
2026-04-27 07:53 58.56794 6.54849 20351 ft 397 kts 117°
2026-04-27 07:53 58.55512 6.59561 20938 ft 401 kts 118°
2026-04-27 07:54 58.54215 6.64316 21513 ft 404 kts 118°
2026-04-27 07:54 58.52907 6.69102 22096 ft 408 kts 118°
2026-04-27 07:54 58.51585 6.73929 22666 ft 411 kts 118°
2026-04-27 07:54 58.50248 6.78800 23222 ft 415 kts 118°
2026-04-27 07:55 58.49019 6.83820 23759 ft 419 kts 113°
2026-04-27 07:55 58.47913 6.88920 24241 ft 423 kts 113°
2026-04-27 07:55 58.46786 6.94133 24699 ft 426 kts 113°
2026-04-27 07:55 58.45651 6.99381 25159 ft 429 kts 113°
2026-04-27 07:56 58.44509 7.04652 25620 ft 432 kts 113°
2026-04-27 07:56 58.43352 7.09975 26045 ft 435 kts 113°
2026-04-27 07:56 58.42185 7.15326 26480 ft 438 kts 113°
2026-04-27 07:56 58.41007 7.20707 26897 ft 441 kts 113°
2026-04-27 07:57 58.39816 7.26121 27299 ft 444 kts 114°
2026-04-27 07:57 58.38616 7.31554 27717 ft 447 kts 114°
2026-04-27 07:57 58.37403 7.37029 28092 ft 450 kts 114°
2026-04-27 07:57 58.36183 7.42527 28486 ft 452 kts 114°
2026-04-27 07:58 58.35119 7.47305 28813 ft 455 kts 114°
2026-04-27 07:58 58.33895 7.52796 29154 ft 457 kts 114°
2026-04-27 07:58 58.32646 7.58379 29502 ft 460 kts 114°
2026-04-27 07:58 58.31395 7.63956 29852 ft 462 kts 114°
2026-04-27 07:59 58.30121 7.69622 30192 ft 465 kts 114°
2026-04-27 07:59 58.27556 7.80980 30808 ft 469 kts 114°
2026-04-27 07:59 58.26262 7.86688 31104 ft 472 kts 114°
2026-04-27 08:00 58.24960 7.92415 31395 ft 474 kts 114°
2026-04-27 08:00 58.23650 7.98165 31731 ft 474 kts 114°
2026-04-27 08:00 58.22339 8.03904 32102 ft 474 kts 114°
2026-04-27 08:00 58.21024 8.09643 32474 ft 474 kts 114°
2026-04-27 08:01 58.19709 8.15364 32849 ft 474 kts 114°
2026-04-27 08:01 58.18390 8.21086 33209 ft 473 kts 114°
2026-04-27 08:01 58.17071 8.26796 33575 ft 473 kts 114°
2026-04-27 08:01 58.15750 8.32499 33940 ft 472 kts 114°
2026-04-27 08:02 58.14429 8.38186 34269 ft 472 kts 114°
2026-04-27 08:02 58.13105 8.43867 34553 ft 472 kts 114°
2026-04-27 08:02 58.11779 8.49545 34813 ft 472 kts 114°
2026-04-27 08:02 58.10451 8.55216 35067 ft 472 kts 114°
2026-04-27 08:03 58.09121 8.60881 35310 ft 472 kts 114°
2026-04-27 08:03 58.07786 8.66552 35532 ft 472 kts 114°
2026-04-27 08:03 58.06449 8.72216 35764 ft 472 kts 114°
2026-04-27 08:03 58.05109 8.77879 35997 ft 472 kts 114°
2026-04-27 08:04 58.03766 8.83539 36206 ft 472 kts 114°
2026-04-27 08:04 58.02422 8.89188 36409 ft 473 kts 114°
2026-04-27 08:04 58.01072 8.94848 36627 ft 473 kts 114°
2026-04-27 08:04 57.99722 9.00497 36830 ft 473 kts 114°
2026-04-27 08:05 57.98369 9.06141 37025 ft 473 kts 114°
2026-04-27 08:05 57.97029 9.11713 37204 ft 473 kts 114°
2026-04-27 08:05 57.95671 9.17350 37375 ft 474 kts 114°
2026-04-27 08:05 57.94307 9.22998 37375 ft 473 kts 114°
2026-04-27 08:06 57.91582 9.34232 37367 ft 472 kts 115°
2026-04-27 08:06 57.88843 9.45471 37367 ft 473 kts 115°
2026-04-27 08:07 57.86092 9.56696 37366 ft 473 kts 115°
2026-04-27 08:07 57.83332 9.67905 37360 ft 473 kts 115°
2026-04-27 08:08 57.80561 9.79100 37362 ft 473 kts 115°
2026-04-27 08:08 57.77779 9.90280 37357 ft 473 kts 115°
2026-04-27 08:09 57.74989 10.01441 37361 ft 473 kts 115°
2026-04-27 08:09 57.72187 10.12589 37359 ft 474 kts 115°
2026-04-27 08:10 57.69373 10.23729 37356 ft 474 kts 115°
2026-04-27 08:10 57.66547 10.34860 37354 ft 474 kts 115°
2026-04-27 08:11 57.63706 10.45994 37365 ft 475 kts 115°
2026-04-27 08:11 57.60856 10.57108 37367 ft 475 kts 115°
2026-04-27 08:12 57.57990 10.68230 37364 ft 476 kts 115°
2026-04-27 08:12 57.55601 10.77459 37366 ft 476 kts 116°
2026-04-27 08:13 57.52714 10.88560 37368 ft 477 kts 116°
2026-04-27 08:13 57.49815 10.99655 37368 ft 477 kts 116°
2026-04-27 08:14 57.46902 11.10745 37368 ft 477 kts 116°
2026-04-27 08:14 57.43980 11.21817 37363 ft 478 kts 116°
2026-04-27 08:15 57.41044 11.32883 37369 ft 478 kts 116°
2026-04-27 08:15 57.38097 11.43943 37365 ft 478 kts 116°
2026-04-27 08:16 57.35138 11.54988 37362 ft 479 kts 116°
2026-04-27 08:16 57.32168 11.66022 37360 ft 479 kts 116°
2026-04-27 08:17 57.29192 11.77025 37362 ft 479 kts 116°
2026-04-27 08:17 57.26197 11.88045 37359 ft 479 kts 116°
2026-04-27 08:18 57.23196 11.99034 37349 ft 479 kts 116°
2026-04-27 08:18 57.20184 12.10010 37352 ft 480 kts 116°
2026-04-27 08:19 57.17164 12.20979 37347 ft 480 kts 116°
2026-04-27 08:19 57.14159 12.31861 37342 ft 480 kts 117°
2026-04-27 08:20 57.11028 12.42715 37335 ft 481 kts 117°
2026-04-27 08:20 57.07983 12.53673 37345 ft 481 kts 116°
2026-04-27 08:21 57.04925 12.64604 37338 ft 481 kts 117°
2026-04-27 08:21 57.01837 12.75511 37335 ft 482 kts 117°
2026-04-27 08:22 56.98727 12.86409 37333 ft 482 kts 117°
2026-04-27 08:22 56.95607 12.97289 37326 ft 482 kts 117°
2026-04-27 08:23 56.92475 13.08158 37332 ft 483 kts 117°
2026-04-27 08:23 56.89329 13.19028 37327 ft 483 kts 117°
2026-04-27 08:24 56.86176 13.29872 37324 ft 483 kts 117°
2026-04-27 08:24 56.83010 13.40706 37328 ft 483 kts 117°
2026-04-27 08:25 56.79834 13.51527 37326 ft 483 kts 117°
2026-04-27 08:25 56.76648 13.62331 37321 ft 483 kts 117°
2026-04-27 08:26 56.73476 13.73038 37319 ft 484 kts 117°
2026-04-27 08:26 56.70253 13.83868 37319 ft 484 kts 118°
2026-04-27 08:27 56.67059 13.94550 37316 ft 484 kts 118°
2026-04-27 08:27 56.63836 14.05282 37318 ft 484 kts 118°
2026-04-27 08:28 56.60602 14.16000 37313 ft 484 kts 118°
2026-04-27 08:28 56.57360 14.26695 37313 ft 484 kts 118°
2026-04-27 08:29 56.54112 14.37364 37311 ft 484 kts 118°
2026-04-27 08:29 56.50852 14.48023 37309 ft 484 kts 118°
2026-04-27 08:30 56.47584 14.58659 37307 ft 483 kts 118°
2026-04-27 08:30 56.44306 14.69279 37306 ft 483 kts 118°
2026-04-27 08:31 56.41023 14.79869 37294 ft 483 kts 118°
2026-04-27 08:31 56.37728 14.90450 37284 ft 483 kts 118°
2026-04-27 08:32 56.34463 15.00889 37275 ft 483 kts 118°
2026-04-27 08:32 56.31110 15.11562 37266 ft 484 kts 118°
2026-04-27 08:33 56.27785 15.22097 37267 ft 484 kts 118°
2026-04-27 08:33 56.24451 15.32614 37266 ft 484 kts 118°
2026-04-27 08:34 56.21130 15.43044 37270 ft 484 kts 118°
2026-04-27 08:34 56.17777 15.53531 37275 ft 484 kts 119°
2026-04-27 08:35 56.14391 15.64073 37281 ft 484 kts 119°
2026-04-27 08:35 56.11040 15.74459 37285 ft 484 kts 119°
2026-04-27 08:36 56.07660 15.84892 37289 ft 484 kts 119°
2026-04-27 08:36 56.04269 15.95311 37288 ft 485 kts 119°
2026-04-27 08:37 56.00870 16.05711 37289 ft 485 kts 119°
2026-04-27 08:37 55.97461 16.16097 37288 ft 485 kts 119°
2026-04-27 08:38 55.94040 16.26472 37289 ft 485 kts 119°
2026-04-27 08:38 55.90609 16.36835 36956 ft 485 kts 119°
2026-04-27 08:39 55.88892 16.42005 36701 ft 483 kts 119°
2026-04-27 08:39 55.87181 16.47144 36444 ft 482 kts 119°
2026-04-27 08:39 55.85469 16.52275 36194 ft 482 kts 120°
2026-04-27 08:39 55.83755 16.57404 35947 ft 482 kts 120°
2026-04-27 08:40 55.82042 16.62518 35698 ft 481 kts 120°
2026-04-27 08:40 55.80330 16.67617 35454 ft 480 kts 120°
2026-04-27 08:40 55.78616 16.72710 35208 ft 480 kts 120°
2026-04-27 08:40 55.76904 16.77789 34972 ft 479 kts 120°
2026-04-27 08:41 55.75190 16.82861 34731 ft 479 kts 120°
2026-04-27 08:41 55.73475 16.87927 34496 ft 478 kts 120°
2026-04-27 08:41 55.71785 16.92908 34253 ft 477 kts 120°
2026-04-27 08:41 55.70070 16.97953 33943 ft 478 kts 120°
2026-04-27 08:42 55.68352 17.03002 33254 ft 481 kts 120°
2026-04-27 08:42 55.66616 17.08098 32452 ft 483 kts 120°
2026-04-27 08:42 55.64746 17.13041 31702 ft 484 kts 126°
2026-04-27 08:42 55.62566 17.17532 31189 ft 479 kts 134°
2026-04-27 08:43 55.60115 17.21491 30639 ft 475 kts 141°
2026-04-27 08:43 55.57533 17.25079 30044 ft 471 kts 141°
2026-04-27 08:43 55.54982 17.28660 29496 ft 465 kts 141°
2026-04-27 08:43 55.52474 17.32194 28968 ft 459 kts 141°
2026-04-27 08:44 55.49992 17.35687 28427 ft 454 kts 141°
2026-04-27 08:44 55.47531 17.39146 27890 ft 449 kts 141°
2026-04-27 08:44 55.45096 17.42560 27377 ft 445 kts 141°
2026-04-27 08:44 55.42682 17.45937 26855 ft 441 kts 141°
2026-04-27 08:45 55.40291 17.49277 26338 ft 438 kts 141°
2026-04-27 08:45 55.37911 17.52595 25825 ft 434 kts 141°
2026-04-27 08:45 55.35553 17.55877 25313 ft 431 kts 141°
2026-04-27 08:45 55.33205 17.59140 24803 ft 429 kts 141°
2026-04-27 08:46 55.30873 17.62377 24299 ft 427 kts 141°
2026-04-27 08:46 55.28548 17.65598 23736 ft 426 kts 141°
2026-04-27 08:46 55.26233 17.68801 23228 ft 421 kts 141°
2026-04-27 08:46 55.23944 17.71962 22721 ft 417 kts 141°
2026-04-27 08:47 55.21673 17.75094 22220 ft 413 kts 141°
2026-04-27 08:47 55.19421 17.78195 21723 ft 410 kts 141°
2026-04-27 08:47 55.17190 17.81263 21227 ft 407 kts 141°
2026-04-27 08:47 55.14942 17.84351 20729 ft 422 kts 141°
2026-04-27 08:48 55.12573 17.87601 20198 ft 440 kts 141°
2026-04-27 08:48 55.10151 17.90918 19659 ft 445 kts 141°
2026-04-27 08:48 55.07712 17.94250 19107 ft 445 kts 141°
2026-04-27 08:48 55.05312 17.97524 18573 ft 441 kts 141°
2026-04-27 08:49 55.02876 18.00841 17975 ft 436 kts 141°
2026-04-27 08:49 55.00504 18.04067 17444 ft 429 kts 141°
2026-04-27 08:49 54.98200 18.07198 16914 ft 423 kts 141°
2026-04-27 08:49 54.95895 18.10324 16402 ft 417 kts 141°
2026-04-27 08:50 54.93616 18.13410 15882 ft 412 kts 141°
2026-04-27 08:50 54.91365 18.16454 15375 ft 408 kts 141°
2026-04-27 08:50 54.89140 18.19458 14873 ft 403 kts 141°
2026-04-27 08:50 54.86932 18.22437 14370 ft 399 kts 141°
2026-04-27 08:51 54.84751 18.25373 13861 ft 396 kts 141°
2026-04-27 08:51 54.82586 18.28284 13356 ft 391 kts 141°
2026-04-27 08:51 54.80454 18.31146 13036 ft 381 kts 141°
2026-04-27 08:51 54.78394 18.33908 12880 ft 368 kts 141°
2026-04-27 08:52 54.76403 18.36573 12755 ft 355 kts 141°
2026-04-27 08:52 54.74479 18.39146 12613 ft 343 kts 141°
2026-04-27 08:52 54.72626 18.41621 12484 ft 331 kts 141°
2026-04-27 08:52 54.70838 18.44008 12371 ft 319 kts 141°
2026-04-27 08:53 54.69114 18.46308 12246 ft 308 kts 141°
2026-04-27 08:53 54.67454 18.48521 12147 ft 296 kts 141°
2026-04-27 08:53 54.65845 18.50659 11992 ft 287 kts 141°
2026-04-27 08:53 54.64274 18.52747 11687 ft 284 kts 141°
2026-04-27 08:54 54.62713 18.54819 11372 ft 282 kts 141°
2026-04-27 08:54 54.61160 18.56878 11051 ft 280 kts 141°
2026-04-27 08:54 54.59617 18.58922 10733 ft 279 kts 142°
2026-04-27 08:54 54.58085 18.60950 10426 ft 277 kts 142°
2026-04-27 08:55 54.56582 18.62937 10128 ft 275 kts 142°
2026-04-27 08:55 54.55072 18.64932 9809 ft 272 kts 142°
2026-04-27 08:55 54.53580 18.66901 9361 ft 269 kts 142°
2026-04-27 08:55 54.52105 18.68846 8911 ft 266 kts 142°
2026-04-27 08:56 54.50644 18.70770 8470 ft 263 kts 142°
2026-04-27 08:56 54.49202 18.72667 8047 ft 259 kts 142°
2026-04-27 08:56 54.47776 18.74544 7623 ft 257 kts 142°
2026-04-27 08:56 54.46364 18.76400 7205 ft 254 kts 142°
2026-04-27 08:57 54.43589 18.80038 6406 ft 248 kts 142°
2026-04-27 08:57 54.42222 18.81830 5959 ft 247 kts 142°
2026-04-27 08:57 54.40855 18.83621 5597 ft 247 kts 142°
2026-04-27 08:58 54.39496 18.85400 5319 ft 245 kts 142°
2026-04-27 08:58 54.38142 18.87170 5072 ft 243 kts 142°
2026-04-27 08:58 54.36763 18.88821 5001 ft 245 kts 156°
2026-04-27 08:58 54.35119 18.89357 4998 ft 241 kts 189°
2026-04-27 08:59 54.33524 18.88587 4892 ft 237 kts 207°
2026-04-27 08:59 54.32046 18.87415 4697 ft 233 kts 210°
2026-04-27 08:59 54.30595 18.86195 4436 ft 231 kts 211°
2026-04-27 08:59 54.29461 18.84461 4299 ft 211 kts 249°
2026-04-27 09:00 54.29244 18.82116 4199 ft 195 kts 281°
2026-04-27 09:00 54.29545 18.79936 4110 ft 184 kts 292°
2026-04-27 09:00 54.30005 18.77915 4022 ft 182 kts 296°
2026-04-27 09:00 54.30497 18.75941 3909 ft 176 kts 296°
2026-04-27 09:01 54.30970 18.74026 3706 ft 175 kts 296°
2026-04-27 09:01 54.31442 18.72120 3475 ft 172 kts 295°
2026-04-27 09:01 54.31903 18.70269 3250 ft 171 kts 295°
2026-04-27 09:01 54.32370 18.68401 3021 ft 164 kts 294°
2026-04-27 09:02 54.32789 18.66697 2801 ft 152 kts 296°
2026-04-27 09:02 54.33183 18.65082 2576 ft 139 kts 296°
2026-04-27 09:02 54.33563 18.63588 2416 ft 138 kts 296°
2026-04-27 09:02 54.33927 18.62077 2212 ft 137 kts 296°
2026-04-27 09:03 54.34304 18.60577 2021 ft 136 kts 294°
2026-04-27 09:03 54.34666 18.59108 1840 ft 133 kts 296°
2026-04-27 09:03 54.34906 18.58120 1702 ft 133 kts 295°
2026-04-27 09:03 54.35390 18.56188 1459 ft 135 kts 295°
2026-04-27 09:04 54.35630 18.55198 1305 ft 134 kts 296°
2026-04-27 09:04 54.35997 18.53731 1119 ft 135 kts 296°
2026-04-27 09:04 54.36372 18.52217 855 ft 137 kts 295°
2026-04-27 09:04 54.36736 18.50741 719 ft 137 kts 296°
2026-04-27 09:05 54.37105 18.49254 541 ft 133 kts 298°
2026-04-27 09:05 54.37449 18.47911 469 ft 102 kts 292°
2026-04-27 09:05 54.37620 18.47179 457 ft 28 kts 292°
2026-04-27 09:05 54.37711 18.46929 454 ft 24 kts 306°
2026-04-27 09:06 54.37782 18.46792 457 ft 11 kts 321°
2026-04-27 09:06 54.37846 18.46713 458 ft 12 kts 324°
2026-04-27 09:06 54.37898 18.46756 459 ft 10 kts 86°
2026-04-27 09:06 54.37872 18.46880 459 ft 12 kts 111°
2026-04-27 09:07 54.37906 18.46980 459 ft 11 kts 22°
2026-04-27 09:07 54.37962 18.47021 459 ft 7 kts
2026-04-27 09:07 54.37997 18.47015 457 ft 3 kts 355°
2026-04-27 09:07 54.38012 18.47013 459 ft 0 kts 354°
2026-04-27 09:08 54.38012 18.47012 459 ft 0 kts 354°